• In Czech Republic
  • List of Countries
  • For 7 days
  • Water Temperature
  • Satellite Maps
  • Weather Map
  • Weather Widgets
  • user-avatar
    Login

    Hourly Weather Dawson

    Today, 24 October, Tuesday

    Time Temperature Precipitation Wind Pressure Humidity
    00:00 -10°C° 0 mm 1 mps 685 mmHg 79%
    01:00 -9°C° 0.1 mm 1 mps 685 mmHg 82%
    02:00 -9°C° 0.1 mm 1 mps 686 mmHg 84%
    03:00 -9°C° 0.1 mm 1 mps 686 mmHg 87%
    04:00 -9°C° 0 mm 1 mps 687 mmHg 89%
    05:00 -10°C° 0 mm 1 mps 687 mmHg 92%
    06:00 -10°C° 0 mm 1 mps 687 mmHg 95%
    07:00 -10°C° 0 mm 1 mps 687 mmHg 94%
    08:00 -10°C° 0 mm 1 mps 688 mmHg 94%
    09:00 -10°C° 0 mm 1 mps 688 mmHg 93%
    10:00 -9°C° 0 mm 1 mps 688 mmHg 89%
    11:00 -8°C° 0 mm 1 mps 688 mmHg 85%
    12:00 -7°C° 0 mm 1 mps 688 mmHg 81%
    13:00 -7°C° 0 mm 1 mps 687 mmHg 82%
    14:00 -7°C° 0 mm 1 mps 687 mmHg 83%
    15:00 -7°C° 0 mm 1 mps 686 mmHg 83%
    16:00 -8°C° 0 mm 1 mps 686 mmHg 85%
    17:00 -9°C° 0 mm 1 mps 685 mmHg 86%
    18:00 -10°C° 0 mm 1 mps 685 mmHg 87%
    19:00 -10°C° 0 mm 1 mps 684 mmHg 87%
    20:00 -10°C° 0 mm 1 mps 684 mmHg 88%
    21:00 -10°C° 0 mm 1 mps 684 mmHg 89%
    22:00 -10°C° 0 mm 1 mps 684 mmHg 89%
    23:00 -9°C° 0 mm 1 mps 683 mmHg 90%

    Tomorrow, 25 October, Wednesday

    Time Temperature Precipitation Wind Pressure Humidity
    00:00 -9°C° 0 mm 1 mps 683 mmHg 91%
    01:00 -8°C° 0 mm 1 mps 683 mmHg 91%
    02:00 -8°C° 0 mm 1 mps 684 mmHg 91%
    03:00 -8°C° 0 mm 1 mps 684 mmHg 91%
    04:00 -8°C° 0 mm 1 mps 684 mmHg 91%
    05:00 -8°C° 0 mm 1 mps 684 mmHg 91%
    06:00 -9°C° 0 mm 2 mps 684 mmHg 91%
    07:00 -9°C° 0 mm 2 mps 684 mmHg 90%
    08:00 -9°C° 0 mm 2 mps 684 mmHg 89%
    09:00 -9°C° 0 mm 2 mps 684 mmHg 88%
    10:00 -8°C° 0 mm 2 mps 684 mmHg 84%
    11:00 -7°C° 0 mm 2 mps 684 mmHg 81%
    12:00 -6°C° 0 mm 2 mps 684 mmHg 77%
    13:00 -6°C° 0 mm 2 mps 684 mmHg 77%
    14:00 -6°C° 0 mm 2 mps 684 mmHg 77%
    15:00 -6°C° 0 mm 2 mps 683 mmHg 77%
    16:00 -7°C° 0 mm 2 mps 683 mmHg 80%
    17:00 -7°C° 0 mm 2 mps 683 mmHg 83%
    18:00 -8°C° 0 mm 2 mps 683 mmHg 85%
    19:00 -8°C° 0 mm 2 mps 683 mmHg 85%
    20:00 -8°C° 0 mm 2 mps 683 mmHg 85%
    21:00 -8°C° 0 mm 2 mps 683 mmHg 85%
    22:00 -8°C° 0 mm 1 mps 683 mmHg 85%
    23:00 -8°C° 0 mm 1 mps 683 mmHg 85%

    Day after tomorrow, 26 October, Thursday

    Time Temperature Precipitation Wind Pressure Humidity
    00:00 -8°C° 0 mm 1 mps 683 mmHg 86%
    01:00 -8°C° 0 mm 1 mps 683 mmHg 86%
    02:00 -8°C° 0 mm 1 mps 683 mmHg 87%
    03:00 -8°C° 0 mm 1 mps 683 mmHg 87%
    04:00 -8°C° 0 mm 1 mps 683 mmHg 87%
    05:00 -8°C° 0 mm 1 mps 683 mmHg 87%
    06:00 -8°C° 0 mm 1 mps 683 mmHg 88%
    07:00 -7°C° 0 mm 1 mps 683 mmHg 87%
    08:00 -7°C° 0 mm 1 mps 683 mmHg 86%
    09:00 -6°C° 0 mm 1 mps 683 mmHg 86%
    10:00 -6°C° 0 mm 2 mps 683 mmHg 84%
    11:00 -5°C° 0 mm 2 mps 683 mmHg 82%
    12:00 -4°C° 0 mm 2 mps 683 mmHg 81%
    13:00 -4°C° 0.2 mm 2 mps 682 mmHg 85%
    14:00 -4°C° 0.2 mm 2 mps 682 mmHg 89%
    15:00 -4°C° 0.2 mm 2 mps 682 mmHg 92%
    16:00 -2°C° 0.5 mm 1 mps 682 mmHg 94%
    17:00 -2°C° 0.5 mm 1 mps 682 mmHg 95%
    18:00 -2°C° 0.5 mm 1 mps 682 mmHg 96%
    19:00 -2°C° 0.2 mm 1 mps 682 mmHg 96%
    20:00 -2°C° 0.2 mm 1 mps 682 mmHg 96%
    21:00 -2°C° 0.2 mm 1 mps 682 mmHg 96%
    22:00 -2°C° 0.1 mm 1 mps 682 mmHg 95%
    23:00 -2°C° 0.1 mm 1 mps 682 mmHg 95%

    27 October, Friday

    Time Temperature Precipitation Wind Pressure Humidity
    00:00 -1°C° 0.1 mm 1 mps 681 mmHg 95%
    01:00 -1°C° 0.5 mm 1 mps 681 mmHg 95%
    02:00 -1°C° 0.5 mm 1 mps 681 mmHg 95%
    03:00 0°C° 0.5 mm 1 mps 680 mmHg 95%
    04:00 0°C° 0.2 mm 1 mps 679 mmHg 95%
    05:00 0°C° 0.2 mm 1 mps 678 mmHg 95%
    06:00 0°C° 0.2 mm 1 mps 678 mmHg 95%
    07:00 0°C° 0.5 mm 1 mps 677 mmHg 95%
    08:00 +1°C° 0.5 mm 1 mps 676 mmHg 95%
    09:00 +1°C° 0.5 mm 1 mps 676 mmHg 94%
    10:00 +2°C° 0.1 mm 1 mps 676 mmHg 94%
    11:00 +2°C° 0.1 mm 1 mps 675 mmHg 94%
    12:00 +3°C° 0.1 mm 1 mps 675 mmHg 94%
    13:00 +2°C° 0 mm 1 mps 675 mmHg 94%
    14:00 +2°C° 0 mm 1 mps 675 mmHg 95%
    15:00 +2°C° 0 mm 1 mps 675 mmHg 95%
    16:00 +1°C° 0.3 mm 2 mps 675 mmHg 95%
    17:00 +1°C° 0.3 mm 2 mps 676 mmHg 95%
    18:00 +1°C° 0.3 mm 2 mps 676 mmHg 95%
    19:00 0°C° 0.3 mm 3 mps 678 mmHg 93%
    20:00 0°C° 0.3 mm 3 mps 679 mmHg 91%
    21:00 -1°C° 0.3 mm 4 mps 680 mmHg 89%
    22:00 -2°C° 0.1 mm 4 mps 681 mmHg 88%
    23:00 -2°C° 0.1 mm 4 mps 682 mmHg 87%

    28 October, Saturday

    Time Temperature Precipitation Wind Pressure Humidity
    00:00 -2°C° 0.1 mm 4 mps 684 mmHg 86%
    01:00 -2°C° 0 mm 3 mps 685 mmHg 87%
    02:00 -4°C° 0 mm 3 mps 686 mmHg 88%
    03:00 -4°C° 0 mm 3 mps 687 mmHg 89%
    04:00 -4°C° 0 mm 2 mps 688 mmHg 89%
    05:00 -5°C° 0 mm 2 mps 689 mmHg 90%
    06:00 -3°C° 0 mm 1 mps 690 mmHg 91%
    07:00 -3°C° 0 mm 1 mps 691 mmHg 90%
    08:00 -3°C° 0 mm 1 mps 692 mmHg 89%
    09:00 -3°C° 0 mm 1 mps 693 mmHg 89%
    10:00 -3°C° 0 mm 1 mps 694 mmHg 85%
    11:00 -2°C° 0 mm 1 mps 695 mmHg 82%
    12:00 -1°C° 0 mm 1 mps 696 mmHg 78%
    13:00 -2°C° 0 mm 1 mps 696 mmHg 80%
    14:00 -2°C° 0 mm 1 mps 696 mmHg 83%
    15:00 -3°C° 0 mm 1 mps 696 mmHg 85%
    16:00 -4°C° 0 mm 1 mps 697 mmHg 86%
    17:00 -6°C° 0 mm 1 mps 697 mmHg 87%
    18:00 -7°C° 0 mm 1 mps 697 mmHg 88%
    19:00 -7°C° 0 mm 1 mps 697 mmHg 88%
    20:00 -7°C° 0 mm 1 mps 697 mmHg 87%
    21:00 -7°C° 0 mm 1 mps 697 mmHg 87%
    22:00 -7°C° 0 mm 1 mps 697 mmHg 87%
    23:00 -7°C° 0 mm 1 mps 697 mmHg 87%

    29 October, Sunday

    Time Temperature Precipitation Wind Pressure Humidity
    00:00 -7°C° 0 mm 1 mps 697 mmHg 87%
    01:00 -7°C° 0 mm 1 mps 697 mmHg 86%
    02:00 -7°C° 0 mm 1 mps 697 mmHg 86%
    03:00 -7°C° 0 mm 1 mps 696 mmHg 86%
    04:00 -7°C° 0 mm 1 mps 696 mmHg 85%
    05:00 -7°C° 0 mm 1 mps 696 mmHg 85%
    06:00 -6°C° 0 mm 1 mps 696 mmHg 84%
    07:00 -6°C° 0 mm 1 mps 696 mmHg 85%
    08:00 -6°C° 0 mm 1 mps 695 mmHg 85%
    09:00 -6°C° 0 mm 1 mps 695 mmHg 85%
    10:00 -4°C° 0 mm 1 mps 695 mmHg 84%
    11:00 -3°C° 0 mm 1 mps 695 mmHg 83%
    12:00 -2°C° 0 mm 1 mps 695 mmHg 82%
    13:00 -2°C° 0 mm 1 mps 694 mmHg 83%
    14:00 -2°C° 0 mm 1 mps 694 mmHg 85%
    15:00 -2°C° 0 mm 1 mps 693 mmHg 86%
    16:00 -3°C° 0 mm 1 mps 692 mmHg 86%
    17:00 -3°C° 0 mm 1 mps 692 mmHg 86%
    18:00 -3°C° 0 mm 1 mps 691 mmHg 87%
    19:00 -3°C° 0 mm 1 mps 690 mmHg 87%
    20:00 -3°C° 0 mm 1 mps 690 mmHg 87%
    21:00 -3°C° 0 mm 1 mps 689 mmHg 87%
    22:00 -2°C° 0.3 mm 1 mps 689 mmHg 89%
    23:00 -4°C° 0.3 mm 2 mps 688 mmHg 91%

    30 October, Monday

    Time Temperature Precipitation Wind Pressure Humidity
    00:00 -4°C° 0.3 mm 2 mps 688 mmHg 93%
    01:00 -4°C° 0.5 mm 2 mps 688 mmHg 94%
    02:00 -4°C° 0.5 mm 2 mps 687 mmHg 94%
    03:00 -4°C° 0.5 mm 2 mps 687 mmHg 95%
    04:00 -4°C° 0.1 mm 2 mps 687 mmHg 94%
    05:00 -4°C° 0.1 mm 2 mps 687 mmHg 94%
    06:00 -4°C° 0.1 mm 2 mps 687 mmHg 94%
    07:00 -4°C° 0.2 mm 2 mps 688 mmHg 92%
    08:00 -4°C° 0.2 mm 2 mps 688 mmHg 91%
    09:00 -3°C° 0.2 mm 2 mps 689 mmHg 90%
    10:00 -2°C° 0.1 mm 2 mps 689 mmHg 89%
    11:00 -1°C° 0.1 mm 2 mps 690 mmHg 88%
    12:00 +1°C° 0.1 mm 1 mps 690 mmHg 87%
    13:00 +1°C° 0 mm 1 mps 690 mmHg 87%
    14:00 +1°C° 0 mm 1 mps 691 mmHg 87%
    15:00 +1°C° 0 mm 1 mps 691 mmHg 86%
    16:00 -1°C° 0.1 mm 2 mps 692 mmHg 87%
    17:00 -2°C° 0.1 mm 2 mps 692 mmHg 88%
    18:00 -2°C° 0.1 mm 2 mps 693 mmHg 88%
    19:00 -2°C° 0.1 mm 2 mps 694 mmHg 89%
    20:00 -3°C° 0.1 mm 2 mps 694 mmHg 89%
    21:00 -3°C° 0.1 mm 2 mps 695 mmHg 90%
    22:00 -3°C° 0 mm 2 mps 695 mmHg 90%
    23:00 -3°C° 0 mm 2 mps 696 mmHg 91%
    Show more